CW6668 Weather Reports


Display with metric or nautical units.
time (UTC)temp
F
wind
direction
speed
MPH
gust
MPH
rain 1hr
in
rain 24hr
in
rain mn
in
humidity
%
barometer
mb
20260509223012 69 58 0.0 2.0 0.00 0.00 0.00 60 1008.3
20260509221511 71 57 0.0 3.0 0.00 0.00 0.00 62 1008.4
20260509220011 70 105 0.0 2.0 0.00 0.00 0.00 62 1008.3
20260509214509 70 71 1.0 2.0 0.00 0.00 0.00 61 1008.3
20260509213013 69 107 0.0 2.0 0.00 0.00 0.00 62 1008.4
20260509211508 70 13 0.0 2.0 0.00 0.00 0.00 59 1008.3
20260509210008 71 63 2.0 4.0 0.00 0.00 0.00 52 1008.3
20260509204512 71 207 0.0 4.0 0.00 0.00 0.00 56 1008.4
20260509203018 71 172 1.0 9.0 0.00 0.00 0.00 55 1008.3
20260509201505 72 237 6.0 13.0 0.00 0.00 0.00 55 1008.3
20260509200004 73 122 2.0 11.0 0.00 0.00 0.00 54 1008.4
20260509194600 71 115 4.0 13.0 0.00 0.00 0.00 56 1008.6
20260509193102 71 155 2.0 12.0 0.00 0.00 0.00 57 1008.7
20260509191556 70 132 1.0 6.0 0.00 0.00 0.00 57 1009.1
20260509190055 70 242 2.0 10.0 0.00 0.00 0.00 57 1009.4
20260509184553 70 277 2.0 5.0 0.00 0.00 0.00 58 1009.1
20260509183102 70 57 1.0 4.0 0.00 0.00 0.00 60 1009.7
20260509181550 68 51 0.0 5.0 0.00 0.00 0.00 62 1009.6
20260509180045 67 313 0.0 2.0 0.00 0.00 0.00 62 1010.2
20260509174550 66 285 1.0 4.0 0.00 0.00 0.00 60 1010.5
20260509173046 67 293 1.0 4.0 0.00 0.00 0.00 58 1010.4
20260509171545 69 313 2.0 6.0 0.00 0.00 0.00 59 1010.8
20260509170039 67 270 2.0 4.0 0.00 0.00 0.00 62 1010.8
20260509164538 66 274 2.0 6.0 0.00 0.00 0.00 57 1010.9
20260509163045 64 107 1.0 4.0 0.00 0.00 0.00 59 1010.8
20260509161542 64 65 0.0 4.0 0.00 0.00 0.00 62 1010.9
20260509160034 64 139 2.0 5.0 0.00 0.00 0.00 59 1011.1
20260509154533 63 115 1.0 7.0 0.00 0.00 0.00 61 1011.0
20260509153046 64 228 2.0 7.0 0.00 0.00 0.00 59 1011.1
20260509151536 64 252 2.0 7.0 0.00 0.00 0.00 56 1011.3
20260509150039 63 156 4.0 9.0 0.00 0.00 0.00 58 1011.3
20260509144526 62 151 2.0 6.0 0.00 0.00 0.00 60 1011.5
20260509143022 61 124 2.0 6.0 0.00 0.00 0.00 61 1011.6
20260509141518 60 182 1.0 8.0 0.00 0.00 0.00 61 1011.8
20260509140016 59 163 3.0 6.0 0.00 0.00 0.00 63 1011.4
20260509134513 59 121 3.0 7.0 0.00 0.00 0.00 61 1011.6
20260509133013 59 312 1.0 5.0 0.00 0.00 0.00 60 1011.8
20260509131511 59 192 2.0 7.0 0.00 0.00 0.00 59 1011.7
20260509130009 59 188 1.0 8.0 0.00 0.00 0.00 60 1011.7
20260509124507 59 151 1.0 5.0 0.00 0.00 0.00 61 1011.7
20260509123006 59 164 0.0 3.0 0.00 0.00 0.00 60 1011.7
20260509121506 59 262 0.0 3.0 0.00 0.00 0.00 66 1011.8
20260509120001 58 146 0.0 5.0 0.00 0.00 0.00 61 1011.7
20260509114600 58 190 2.0 7.0 0.00 0.00 0.00 60 1011.4
20260509113105 57 146 2.0 5.0 0.00 0.00 0.00 61 1011.3
20260509111558 57 155 1.0 8.0 0.00 0.00 0.00 59 1011.1
20260509110058 57 96 1.0 3.0 0.00 0.00 0.00 59 1011.1
20260509104554 57 151 1.0 6.0 0.00 0.00 0.00 59 1011.1
20260509103058 57 156 4.0 8.0 0.00 0.00 0.00 58 1010.8
20260509101548 57 184 1.0 5.0 0.00 0.00 0.00 58 1010.9
20260509100051 56 213 2.0 6.0 0.00 0.00 0.00 59 1010.9
20260509094547 56 200 1.0 4.0 0.00 0.00 0.00 60 1010.9
20260509093045 56 208 0.0 6.0 0.00 0.00 0.00 58 1011.0
20260509091543 56 180 2.0 6.0 0.00 0.00 0.00 58 1011.1
20260509090048 56 169 1.0 6.0 0.00 0.00 0.00 58 1011.2
20260509084539 57 101 3.0 5.0 0.00 0.00 0.00 57 1011.3
20260509083036 57 138 1.0 7.0 0.00 0.00 0.00 57 1011.4
20260509081535 57 74 1.0 5.0 0.00 0.00 0.00 56 1011.6
20260509080033 57 142 2.0 8.0 0.00 0.00 0.00 56 1011.8
20260509074531 58 121 3.0 8.0 0.00 0.00 0.00 54 1011.8
20260509073029 59 160 4.0 9.0 0.00 0.00 0.00 51 1011.9
20260509071528 59 146 2.0 10.0 0.00 0.00 0.00 52 1011.7
20260509070025 59 249 3.0 8.0 0.00 0.00 0.00 51 1011.7
20260509064527 59 131 3.0 7.0 0.00 0.00 0.00 51 1011.8
20260509063026 59 165 3.0 8.0 0.00 0.00 0.00 51 1011.9
20260509061526 59 163 1.0 9.0 0.00 0.00 0.00 51 1012.0
20260509060027 59 189 4.0 10.0 0.00 0.00 0.00 51 1012.1
20260509054518 59 157 2.0 8.0 0.00 0.00 0.00 49 1012.0
20260509053016 59 182 4.0 11.0 0.00 0.00 0.00 49 1012.1
20260509051513 60 38 3.0 10.0 0.00 0.00 0.00 49 1012.2
20260509050034 59 129 1.0 8.0 0.00 0.00 0.00 51 1012.2
20260509044512 58 148 1.0 11.0 0.00 0.00 0.00 53 1012.2
20260509043011 56 131 4.0 8.0 0.00 0.00 0.00 55 1012.2
20260509041512 55 121 1.0 4.0 0.00 0.00 0.00 61 1012.2
20260509040010 56 121 0.0 4.0 0.00 0.00 0.00 58 1012.3
20260509034511 57 184 1.0 4.0 0.00 0.00 0.00 56 1012.3
20260509033010 56 153 1.0 5.0 0.00 0.00 0.00 57 1012.3
20260509031518 56 119 0.0 5.0 0.00 0.00 0.00 60 1012.4
20260509030008 56 140 2.0 4.0 0.00 0.00 0.00 59 1012.5
20260509024508 57 128 2.0 6.0 0.00 0.00 0.00 58 1012.6
20260509023014 57 145 1.0 4.0 0.00 0.00 0.00 58 1012.6
20260509021507 59 115 1.0 4.0 0.00 0.00 0.00 54 1012.6
20260509020007 58 131 1.0 4.0 0.00 0.00 0.00 55 1012.5
20260509014506 58 133 0.0 2.0 0.00 0.00 0.00 56 1012.4
20260509013006 60 133 0.0 2.0 0.00 0.00 0.00 51 1012.4
20260509011506 62 159 1.0 3.0 0.00 0.00 0.00 47 1012.5
20260509010013 63 193 1.0 3.0 0.00 0.00 0.00 45 1012.3
20260509004505 64 161 2.0 5.0 0.00 0.00 0.00 43 1012.1
20260509003005 65 211 2.0 5.0 0.00 0.00 0.00 41 1012.1
20260509001503 65 144 1.0 6.0 0.00 0.00 0.00 41 1012.1
20260509000004 65 152 2.0 7.0 0.00 0.00 0.00 41 1011.9
20260508234503 66 146 0.0 9.0 0.00 0.00 0.00 40 1011.7
20260508233002 65 120 1.0 3.0 0.00 0.00 0.00 46 1011.6
20260508231502 65 24 1.0 3.0 0.00 0.00 0.00 45 1011.5
20260508230003 67 245 0.0 3.0 0.00 0.00 0.00 37 1011.4
20260508224600 68 312 0.0 2.0 0.00 0.00 0.00 44 1011.4